Volver al catálogo

STARLINK-37329

ActivoComunicacionesVLEO
NORAD 69155·PAYLOAD·🇺🇸 United States

Lanzado May 21, 2026 desde Cape Canaveral Space Force Station

Loading…

Próximos Pases (próximas 24 horas)

TLE

ActualizadoSource: CelesTrak SupGP

Época: Sep 15, 2026, 04:07 UTC

1 69155C 26111H   26258.17201389 -.00024627  00000+0 -72768-3 0  2584
2 69155  53.1579  90.8318 0001163  83.9585  68.3308 15.34400069    17

Sigue STARLINK-37329 en tiempo real con AllMySat

Download on the App Store